Location: Newark
(13.0000°N, 105.0000°E)
Time: 10:32:43
(UTC+00:00)

LightSail 2 - Visible Passes

Search period start: 16 October 2019 00:00
Search period end: 26 October 2019 00:00
Orbit: 707 x 723 km, 24.0° (Epoch: 14 October)

Date Brightness Start Highest point End Pass type
(mag) Time Alt. Az. Time Alt. Az. Time Alt. Az.
16 Oct 6.7 11:18:25 10° NW 11:22:32 23° N 11:26:27 11° NE visible
16 Oct 7.6 13:04:15 10° NW 13:05:27 16° NW 13:05:27 16° NW visible
17 Oct 6.4 12:06:44 10° NW 12:11:03 26° N 12:11:27 26° NNE visible
18 Oct 6.6 11:09:07 10° NW 11:13:17 24° N 11:17:28 10° ENE visible
18 Oct 7.2 12:54:33 10° NW 12:56:28 21° NW 12:56:28 21° NW visible
19 Oct 6.0 11:57:04 10° NW 12:01:42 33° NNE 12:02:31 31° NNE visible
20 Oct 6.4 10:59:33 10° NW 11:03:58 28° N 11:08:23 10° ENE visible
20 Oct 6.6 12:44:47 10° WNW 12:47:37 32° NW 12:47:37 32° NW visible
21 Oct 5.6 11:47:17 10° WNW 11:52:14 46° NNE 11:53:46 35° ENE visible
21 Oct 8.2 13:32:46 10° WNW 13:32:47 10° WNW 13:32:47 10° WNW visible
22 Oct 6.0 10:49:46 10° NW 10:54:31 37° NNE 10:59:17 10° E visible
22 Oct 5.8 12:35:05 10° WNW 12:39:00 52° WNW 12:39:00 52° WNW visible
23 Oct 5.1 11:37:29 10° WNW 11:42:38 73° NNE 11:45:17 29° E visible
23 Oct 7.9 13:23:29 10° W 13:24:19 14° W 13:24:19 14° W visible
24 Oct 5.8 12:25:34 10° W 12:30:31 47° SSW 12:30:40 47° SSW visible
25 Oct 5.4 11:27:47 10° WNW 11:32:53 68° SSW 11:37:06 15° ESE visible
25 Oct 7.8 13:14:46 10° WSW 13:16:09 15° WSW 13:16:09 15° WSW visible
